Location: Frizzleburg
(41.0764°N, 80.4548°W)
Time: 04:46:50
(UTC+00:00)

Cosmos 1937 Rocket - Pass Details

Date: 17 November 2019
Orbit: 747 x 780 km, 74.0° (Epoch: 12 December)

Event Time Altitude Azimuth Distance (km) Brightness Sun altitude
Exits shadow 10:28:32 17° 221° (SW) 1,855 5.2 -19.4°
Maximum altitude 10:32:25 52° 293° (WNW) 930 3.5 -18.7°
Drops below altitude 10° 10:37:25 10° 10° (N) 2,271 5.9 -17.7°
Sets 10:39:51 0° 15° (NNE) 3,200 6.8 -17.3°
